Location: Roanoke
(37.2710°N, 79.9420°W)
Time: 18:02:24
(UTC-05:00)

Vanguard 2 Rocket - Visible Passes

Search period start: 12 November 2019 00:00
Search period end: 22 November 2019 00:00
Orbit: 554 x 3326 km, 32.9° (Epoch: 12 November)

Date Brightness Start Highest point End Pass type
(mag) Time Alt. Az. Time Alt. Az. Time Alt. Az.
12 Nov 10.0 02:15:25 10° E 02:15:25 10° E 02:15:33 10° E visible
12 Nov 7.6 04:21:13 58° SSW 04:22:14 63° S 04:33:22 10° E visible
13 Nov 8.5 03:25:10 37° ESE 03:25:10 37° ESE 03:31:29 10° E visible
13 Nov 8.2 05:30:59 22° W 05:36:20 67° S 05:49:39 10° ESE visible
14 Nov 9.8 02:29:06 13° E 02:29:06 13° E 02:30:01 10° E visible
14 Nov 7.5 04:34:54 55° SW 04:36:21 66° S 04:47:26 10° E visible
15 Nov 8.2 03:38:50 43° ESE 03:38:50 43° ESE 03:45:37 10° E visible
15 Nov 8.3 05:44:39 18° W 05:50:29 60° S 06:03:26 10° ESE visible
16 Nov 9.6 02:42:46 15° E 02:42:46 15° E 02:44:17 10° E visible
16 Nov 7.5 04:48:35 48° WSW 04:50:30 62° S 05:01:25 10° ESE visible
17 Nov 7.9 03:52:30 49° SE 03:52:30 49° SE 03:59:42 10° E visible
17 Nov 8.5 05:58:18 14° W 06:04:38 49° SSW 06:16:55 10° SE visible
18 Nov 9.4 02:56:26 18° E 02:56:26 18° E 02:58:26 10° E visible
18 Nov 7.7 05:02:15 38° WSW 05:04:39 54° S 05:15:11 10° ESE visible
19 Nov 7.8 04:06:12 50° SSE 04:06:12 50° SSE 04:13:40 10° ESE visible
19 Nov 8.9 06:12:07 10° W 06:18:49 37° SSW 06:29:55 10° SE visible
20 Nov 9.2 03:10:08 20° ESE 03:10:08 20° ESE 03:12:32 10° ESE visible
20 Nov 8.0 05:15:57 29° WSW 05:18:51 42° SSW 05:28:38 10° SE visible
21 Nov 7.8 04:19:55 45° S 04:19:55 45° S 04:27:26 10° ESE visible
21 Nov 9.1 06:26:58 10° WSW 06:33:04 26° SSW 06:42:15 10° SSE visible
